Regional Weather Roundup
Issued by NWS Columbia, SC

Home | Current Version | Previous Version | Text Only | Print | Product List | Glossary On
Versions: 1 2 3 4 5 6 7 8 9 10 11 12 13 14 15 16 17 18 19 20 21 22 23 24 25 26 27 28
000
ASUS42 KCAE 260010
RWRCAE
REGIONAL WEATHER ROUNDUP
NATIONAL WEATHER SERVICE COLUMBIA SC
800 PM EDT SUN SEP 25 2016

NOTE: "FAIR" INDICATES FEW OR NO CLOUDS BELOW 12,000 FEET WITH NO
SIGNIFICANT WEATHER AND/OR OBSTRUCTIONS TO VISIBILITY.

NOT ALL STATIONS ARE QUALITY CONTROLLED BY THE NATIONAL
WEATHER SERVICE. USE DATA WITH CAUTION...ESPECIALLY
DEWPOINT OBSERVATIONS.

SCZ001>056-GAZ040-063>065-077-260100-
...UPSTATE SOUTH CAROLINA...

CITY           SKY/WX    TMP DP  RH WIND       PRES   REMARKS
ANDERSON       CLEAR     84  63  49 SE7       30.04R
6HR MIN TEMP:  84; 6HR MAX TEMP:  94;

LIBERTY        MOCLDY    82  64  55 SE6       30.05R
6HR MIN TEMP:  82; 6HR MAX TEMP:  95;

SPARTANBURG    CLEAR     81  63  54 CALM      30.06R
CLEMSON        MOCLDY    86  62  44 S3        30.06R
6HR MIN TEMP:  86; 6HR MAX TEMP:  95;

GREENVILLE     CLEAR     85  63  47 SE6       30.07R
6HR MIN TEMP:  85; 6HR MAX TEMP:  92;

GREENWOOD      CLEAR     80  66  62 SE5       30.07R
6HR MIN TEMP:  80; 6HR MAX TEMP:  91;

GREER          PTCLDY    79  64  60 SE7       30.05R
6HR MIN TEMP:  79; 6HR MAX TEMP:  92;

ROCK HILL      PTCLDY    81  66  60 SE3       30.08R
6HR MIN TEMP:  81; 6HR MAX TEMP:  91;

CHESTER        PTCLDY    77  64  65 CALM      30.07S
LAURENS        CLEAR     81  64  57 SE5       30.05S


...CENTRAL SOUTH CAROLINA...

CITY           SKY/WX    TMP DP  RH WIND       PRES   REMARKS
COLUMBIA APT   PTCLDY    82  69  64 SE5       30.04S
6HR MIN TEMP:  82; 6HR MAX TEMP:  90;

COLUMBIA OWENS CLEAR     81  70  69 CALM      30.05S
6HR MIN TEMP:  81; 6HR MAX TEMP:  90;

ORANGEBURG     CLEAR     77  70  79 SE3       30.05S
6HR MIN TEMP:  77; 6HR MAX TEMP:  88;

SUMTER SHAW    CLEAR     79  70  74 SE2       30.03S
6HR MIN TEMP:  79; 6HR MAX TEMP:  90;

NEWBERRY       CLEAR     77  68  73 SE3       30.08S
AIKEN          FAIR      77  66  69 SE5       30.09R
MANNING        FAIR      75  63  64 CALM      30.06R
LANCASTER      PTCLDY    77  68  73 NE3       30.07R
WINNSBORO      CLEAR     79  70  73 SE3       30.06S


...EASTERN AND COASTAL SOUTH CAROLINA...

CITY           SKY/WX    TMP DP  RH WIND       PRES   REMARKS
MYRTLE BEACH   CLOUDY    81  66  61 E7        30.09S
N MYRTLE BCH   CLOUDY    78  72  81 E12       30.08R
6HR MIN TEMP:  78; 6HR MAX TEMP:  84; 6HR PCP: TRACE;

CONWAY         LGT RAIN  73  73 100 CALM      30.08S
MARION         MOCLDY    75  70  83 S5        30.08R
HARTSVILLE     FAIR      73  70  88 E3        30.06S
FLORENCE       PTCLDY    82  73  74 E6        30.06S
6HR MIN TEMP:  81; 6HR MAX TEMP:  88;

DARLINGTON     CLEAR     78  73  84 E5        30.07R
6HR MIN TEMP:  78; 6HR MAX TEMP:  88;

CHARLESTON APT MOCLDY    79  71  76 E7        30.06R
6HR MIN TEMP:  79; 6HR MAX TEMP:  88;

MOUNT PLEASANT FAIR      75  73  94 CALM      30.06R
WALTERBORO     CLOUDY    79  73  83 SE5       30.06R
BEAUFORT       MOCLDY    80  74  81 E9        30.05R
6HR MIN TEMP:  80; 6HR MAX TEMP:  88;



...EASTERN GEORGIA...

CITY           SKY/WX    TMP DP  RH WIND       PRES   REMARKS
AUGUSTA BUSH F CLEAR     76  70  82 SE3       30.03R
6HR MIN TEMP:  76; 6HR MAX TEMP:  90;

AUGUSTA DANIEL CLEAR     84  65  52 SE6       30.05R
6HR MIN TEMP:  84; 6HR MAX TEMP:  91;

THOMSON        CLEAR     82  70  66 SE3       30.09R
6HR MIN TEMP:  82; 6HR MAX TEMP:  93;

WASHINGTON     FAIR      82  68  61 CALM      30.04S
CLAXTON        FAIR      76  71  85 CALM      30.04R
6HR MIN TEMP:  76; 6HR MAX TEMP:  90;

STATESBORO     PTCLDY    77  71  82 CALM      30.04R
6HR MIN TEMP:  77; 6HR MAX TEMP:  91;

SAVANNAH       PTCLDY    79  69  71 E8        30.04R
6HR MIN TEMP:  79; 6HR MAX TEMP:  89;



...SOUTHERN NORTH CAROLINA...

CITY           SKY/WX    TMP DP  RH WIND       PRES   REMARKS
CHARLOTTE      MOCLDY    82  68  62 E10       30.08R
6HR MIN TEMP:  82; 6HR MAX TEMP:  90;

MONROE         CLEAR     78  69  73 CALM      30.07R
6HR MIN TEMP:  78; 6HR MAX TEMP:  87;

WADESBORO      CLEAR     77  71  80 NE5       30.08R
RUTHERFORDTON  MOCLDY    81  68  65 NE5       30.09R
ASHEVILLE      CLOUDY    74  67  78 CALM      30.14R
6HR MIN TEMP:  74; 6HR MAX TEMP:  86;


$$




USA.gov is the U.S. government's official web portal to all federal, state and local government web resources and services.